This demonstration page uses our WeatherBlox Daily Observations layout. Learn more.

Left ArrowRight Arrow

Hourly Observations for April 2, 2015

Temp ( °F °C ) Dew Point ( °F °C ) Humidity (%) Winds ( mph kmh ) Pressure ( in mb ) Visibility ( mi km ) Precip ( " mm )
12:53 am 00:53 Mostly Clear 34 1.1 26 -3.3 73 73 WNW 25 41 29.97 1015 10 16 0.00 0.00
1:19 am 01:19 Mostly Cloudy 34 1.1 26 -3.3 73 73 NW 22 35 30.00 1016 10 16 0.00 0.00
1:43 am 01:43 Partly Cloudy 34 1.1 26 -3.3 73 73 NW 23 37 30.03 1017 10 16 0.00 0.00
1:53 am 01:53 Mostly Cloudy 34 1.1 27 -2.8 76 76 WNW 21 33 29.98 1015 10 16 0.00 0.00
2:53 am 02:53 Mostly Cloudy 34 1.1 27 -2.8 76 76 NW 29 46 30.00 1016 10 16 0.00 0.00
3:20 am 03:20 Mostly Cloudy 34 1 27 -3 75 75 NW 18 30 30.06 1018 10 16 0.00 0.00
3:53 am 03:53 Cloudy 32 0 24 -4.4 73 73 WNW 22 35 30.04 1017 10 16 0.00 0.00
4:53 am 04:53 Cloudy 32 0 23 -5 69 69 WNW 14 22 30.07 1018 10 16 0.00 0.00
5:53 am 05:53 Cloudy 31 -0.6 21 -6.1 67 67 WNW 15 24 30.09 1019 10 16 0.00 0.00
6:53 am 06:53 Cloudy 31 -0.6 21 -6.1 67 67 NW 22 35 30.11 1020 10 16 0.00 0.00
7:53 am 07:53 Mostly Cloudy 30 -1.1 21 -6.1 69 69 NW 16 26 30.16 1021 10 16 0.00 0.00
8:53 am 08:53 Mostly Sunny 31 -0.6 21 -6.1 67 67 NW 17 28 30.18 1022 10 16 0.00 0.00
9:53 am 09:53 Sunny 34 1.1 20 -6.7 56 56 NW 18 30 30.19 1023 10 16 0.00 0.00
10:53 am 10:53 Sunny 36 2.2 20 -6.7 52 52 NW 16 26 30.21 1023 10 16 0.00 0.00
11:53 am 11:53 Mostly Cloudy 39 3.9 19 -7.2 45 45 NW 15 24 30.22 1024 10 16 0.00 0.00
12:53 pm 12:53 Cloudy 40 4.4 18 -7.8 41 41 WNW 9 15 30.23 1024 10 16 0.00 0.00
1:53 pm 13:53 Cloudy 42 5.6 18 -7.8 38 38 W 8 13 30.23 1024 10 16 0.00 0.00
2:53 pm 14:53 Mostly Cloudy 45 7.2 18 -7.8 34 34 WNW 9 15 30.21 1023 10 16 0.00 0.00
3:53 pm 15:53 Sunny 47 8.3 20 -6.7 34 34 VRB 6 9 30.20 1023 10 16 0.00 0.00
4:53 pm 16:53 Mostly Sunny 47 8.3 17 -8.3 30 30 NNW 9 15 30.20 1023 10 16 0.00 0.00
5:53 pm 17:53 Sunny 47 8.3 18 -7.8 31 31 WSW 8 13 30.19 1022 10 16 0.00 0.00
6:53 pm 18:53 Sunny 45 7.2 17 -8.3 33 33 SSW 6 9 30.19 1023 10 16 0.00 0.00
7:53 pm 19:53 Clear 37 2.8 19 -7.2 48 48 S 8 13 30.20 1023 10 16 0.00 0.00
8:53 pm 20:53 Mostly Clear 35 1.7 19 -7.2 52 52 S 10 17 30.22 1023 10 16 0.00 0.00
9:53 pm 21:53 Cloudy 35 1.7 21 -6.1 57 57 W 18 30 30.23 1024 10 16 0.00 0.00
10:09 pm 22:09 Cloudy 39 3.9 28 -2.2 65 65 NW 22 35 30.24 1024 10 16 0.00 0.00
10:53 pm 22:53 Mostly Cloudy 37 2.8 30 -1.1 76 76 NNW 9 15 30.24 1024 10 16 0.00 0.00
11:28 pm 23:28 Cloudy with Light Snow 34 1 32 0 93 93 NNW 14 22 30.27 1025 8 13 0.00 0.00
11:53 pm 23:53 Cloudy with Light Wintry Mix 33 0.6 33 0.6 100 100 N 3 6 30.24 1024 9 14 0.01 0.25

Powered by AerisWeather